Flag for Poland Weather past 2 weeks in Grudziądz, Poland

Now
69 °F

Partly sunny.


Feels Like: 69 °F
Forecast: 56 / 70 °F
Wind: 5 mph from West

Location: Torun

Current Time: Jul 28, 2015 at 4:12:20 PM

Latest Report: Jul 28, 2015 at 3:00 PM


Visibility: 28 mi

Pressure: 29.60 "Hg

Humidity: 55%

Dew point: 52 °F

Location of GrudziądzLocation

Historic Weather in Grudziądz — Graph

°F

Grudziądz temperature yesterday

Maximum temperature yesterday: 71 °F (at 3:00 PM)
Minimum temperature yesterday: 46 °F (at 4:00 AM)
Average temperature yesterday: 60 °F

Past Weeks' High & Low Weather Summary

 TemperatureHumidityPressure
High93 °F (Jul 18, 2:00 PM)99% (Jul 14, 7:00 AM)30.10 "Hg (Jul 14, 7:00 AM)
Low46 °F (Jul 27, 4:00 AM)31% (Jul 18, 1:00 PM)29.59 "Hg (Jul 28, 2:00 PM)
Average66 °F69%29.88 "Hg
* Reported Jul 13 2:00 PM — Jul 28 2:00 PM, Grudziądz, Weather by CustomWeather, © 2015

Note: Actual official high and low records may vary slightly from our data, if they occured in-between our weather recording intervals... More about our weather records

Advertising

Grudziądz weather history for previous 24 hours

 ConditionsComfort  
Time TempWeatherWind HumidityBarometerVisibility
2:00 PM
Tue, Jul 28
72 °FPartly sunny.6 mph51%29.59 "Hg25 mi
1:00 PM67 °FPartly sunny.5 mph71%29.61 "Hg28 mi
12:00 PM67 °FOvercast.5 mph69%29.61 "Hg22 mi
11:00 AM70 °FPartly sunny.3 mph65%29.61 "Hg22 mi
10:00 AM66 °FPartly sunny.3 mph75%29.62 "Hg25 mi
9:00 AM63 °FPartly sunny.3 mph84%29.62 "Hg19 mi
8:00 AM62 °FPartly sunny.3 mph87%29.62 "Hg19 mi
7:00 AM59 °FOvercast.2 mph95%29.62 "Hg7 mi
6:00 AM58 °FOvercast.2 mph97%29.61 "Hg7 mi
5:00 AM58 °FFog.2 mph98%29.61 "Hg6 mi
4:00 AM58 °FFog.2 mph98%29.61 "Hg4 mi
3:00 AM58 °FFog.1 mph96%29.60 "Hg5 mi
2:00 AM60 °FOvercast.2 mph94%29.61 "Hg11 mi
1:00 AM60 °FOvercast.2 mph93%29.61 "Hg10 mi
12:00 AM62 °FPassing clouds.3 mph83%29.60 "Hg25 mi
10:00 PM
Mon, Jul 27
61 °FPassing clouds.1 mph88%29.61 "Hg17 mi
9:00 PM62 °FPassing clouds.2 mph85%29.62 "Hg25 mi
8:00 PM64 °FScattered clouds.2 mph76%29.62 "Hg25 mi
7:00 PM64 °FScattered clouds.2 mph76%29.62 "Hg28 mi
6:00 PM63 °FSprinkles. Overcast.1 mph80%29.62 "Hg25 mi
5:00 PM63 °FOvercast.1 mph80%29.64 "Hg22 mi
4:00 PM70 °FOvercast.5 mph50%29.63 "Hg28 mi
Weather by CustomWeather, © 2015

See weather overviewHow to use our weather pages